TimeEDT,TemperatureF,Dew PointF,Humidity,Sea Level PressureIn,VisibilityMPH,Wind Direction,Wind SpeedMPH,Gust SpeedMPH,PrecipitationIn,Events,Conditions,WindDirDegrees,DateUTC
12:53 AM,52.0,41.0,66,30.38,10.0,NNE,10.4,-,N/A,,Clear,30,2012-10-13 04:53:00
1:53 AM,50.0,39.9,68,30.40,10.0,NNE,8.1,-,N/A,,Clear,30,2012-10-13 05:53:00
2:53 AM,48.9,39.0,69,30.38,10.0,NNE,4.6,-,N/A,,Clear,30,2012-10-13 06:53:00
3:53 AM,46.9,39.0,74,30.38,10.0,NNE,4.6,-,N/A,,Clear,30,2012-10-13 07:53:00
4:53 AM,45.0,39.0,80,30.39,10.0,North,3.5,-,N/A,,Clear,10,2012-10-13 08:53:00
5:53 AM,44.1,39.0,82,30.40,10.0,NNE,4.6,-,N/A,,Clear,30,2012-10-13 09:53:00
6:53 AM,43.0,39.0,86,30.43,10.0,NNE,5.8,-,N/A,,Clear,20,2012-10-13 10:53:00
7:53 AM,45.0,39.0,80,30.45,10.0,NNE,5.8,-,N/A,,Clear,20,2012-10-13 11:53:00
8:53 AM,52.0,39.9,63,30.48,10.0,NNE,9.2,-,N/A,,Clear,30,2012-10-13 12:53:00
9:53 AM,55.9,39.0,53,30.48,10.0,NE,9.2,16.1,N/A,,Clear,40,2012-10-13 13:53:00
10:53 AM,59.0,39.9,49,30.47,10.0,ENE,10.4,-,N/A,,Clear,60,2012-10-13 14:53:00
11:53 AM,62.1,42.1,48,30.46,10.0,NE,6.9,-,N/A,,Clear,40,2012-10-13 15:53:00
12:53 PM,64.0,43.0,46,30.45,10.0,Variable,4.6,-,N/A,,Clear,0,2012-10-13 16:53:00
1:53 PM,64.9,42.1,43,30.43,10.0,Variable,3.5,-,N/A,,Clear,0,2012-10-13 17:53:00
2:53 PM,66.9,44.1,44,30.39,10.0,Variable,3.5,-,N/A,,Clear,0,2012-10-13 18:53:00
4:53 PM,68.0,45.0,43,30.38,10.0,Variable,3.5,-,N/A,,Clear,0,2012-10-13 20:53:00
5:53 PM,64.0,50.0,60,30.37,10.0,Calm,Calm,-,N/A,,Clear,0,2012-10-13 21:53:00
6:53 PM,55.0,50.0,83,30.36,10.0,Calm,Calm,-,N/A,,Clear,0,2012-10-13 22:53:00
8:53 PM,50.0,46.9,89,30.38,10.0,Calm,Calm,-,N/A,,Clear,0,2012-10-14 00:53:00
10:53 PM,48.9,46.9,93,30.38,10.0,Calm,Calm,-,N/A,,Clear,0,2012-10-14 02:53:00